[[{"header":{"parameterUnit":"m.s-1","parameterCategory":1,"la1":30.2991,"la2":30.254,"lo1":-89.0895,"lo2":-89.0444,"dy":0.0017,"dx":0.0017,"nx":28,"ny":28,"refTime":"2023-08-25T03:00:00:Z","depth":0,"parameterNumber":2,"parameterNumberName":"U-component_of_WINDS"},"data":[0,0,0,0,0,0,0,0,0,0,0,0,0,0,0,0,0,0,0,0,0,0,0,0,0,0,0,0,0,0,0,0,0,0,0,0,0,0,0,0,0,0,0,0,0,0,0,0,0,0,0,0,0,0,0,0,0,0,4.001,4.0011,0,4.0142,4.0144,4.0145,4.0124,4.0121,4.0119,4.0117,4.0252,4.0257,4.0263,0,0,0,0,0,0,0,0,0,0,0,0,0,3.9738,3.9743,4.001,4.0011,4.0013,4.0142,4.0144,4.0146,4.0124,4.0121,4.0119,4.0116,4.025,4.0257,4.0264,0,0,0,0,0,0,0,0,0,0,0,0,0,3.9862,3.9745,4.0009,4.0018,4.002,4.0142,4.0144,4.0146,4.0125,4.0121,4.0118,4.0115,4.0248,4.0256,4.0264,4.0386,0,0,4.0291,4.0294,0,0,0,0,0,0,0,0,3.9855,3.9872,4.0015,4.0017,4.002,4.0113,4.0098,4.0227,4.0126,4.0085,4.0117,4.0113,4.0208,4.022,4.0252,4.0392,4.0398,4.0291,4.0297,4.03,4.0303,0,0,0,0,0,0,0,3.9846,3.9866,4.0062,4.0017,4.002,4.0015,4.0029,4.0122,4.0164,4.0088,4.0087,4.0103,4.0209,4.0244,4.0255,4.04,4.0291,4.0299,4.0304,4.0307,4.0649,4.0653,0,0,0,0,0,0,3.9835,3.9859,4.0058,4.0066,3.9927,4.0023,4.0038,4.0087,4.0163,4.0172,4.0106,4.0101,4.0231,4.0245,4.026,4.0409,4.03,4.0308,4.0313,4.0645,4.065,4.0654,0,0,0,0,0,0,3.9829,3.9853,4.0052,3.9962,3.9987,4.0031,4.0086,4.0091,4.0126,4.0176,4.0184,4.0134,4.0229,4.0248,4.0356,4.0413,4.0312,4.032,4.0641,4.0647,4.0652,4.0706,0,0,0,0,0,0,3.9822,3.9851,3.9897,3.9963,3.9992,4.0146,4.0089,4.0096,4.0141,4.0137,4.0205,4.0213,4.0228,4.0343,4.0364,4.0423,4.0327,4.0636,4.0643,4.065,4.0699,4.0713,4.0725,0,0,0,0,0,3.9812,3.9907,3.99,3.9924,4.0051,4.0149,4.0165,4.0181,4.0146,4.0193,4.0226,4.0211,4.0403,4.0354,4.0378,4.044,4.0632,4.0641,4.065,4.0694,4.071,4.0725,0,0,0,0,0,0,3.9845,3.9915,3.9909,4.0028,4.0083,4.0145,4.0205,4.0198,4.0264,4.0257,4.0274,4.0289,4.0399,4.043,4.0374,4.0563,4.0513,4.0527,4.0538,4.0555,4.0567,4.0557,4.0334,0,0,0,0,0,3.9867,3.9941,3.9998,4.0097,4.0125,4.0161,4.0204,4.0212,4.0269,4.0292,4.0333,4.0389,4.0462,4.051,4.058,4.0704,4.0719,4.0759,4.0772,4.0782,4.0794,4.0863,4.0882,4.0683,4.0683,4.0683,0,0,3.9911,3.9959,4.0004,4.0105,4.0149,4.0225,4.018,4.0262,4.032,4.0304,4.0409,4.0441,4.0505,4.0622,4.0675,4.0651,4.0852,4.0793,4.0801,4.0807,4.0874,4.0893,4.091,4.0689,4.0688,4.0687,0,0,4.0031,4.0075,4.0163,4.0208,4.0275,4.0298,4.032,4.0384,4.0405,4.0511,4.0501,4.057,4.0695,4.0742,4.0782,4.0923,4.0912,4.0945,4.1012,4.1079,4.1095,4.1109,4.116,4.1178,4.0957,4.0957,4.0957,0,4.0078,4.0193,4.0209,4.0293,4.0339,4.033,4.042,4.0463,4.0549,4.0581,4.0553,4.0712,4.0755,4.0883,4.0918,4.095,4.0975,4.0937,4.1091,4.1106,4.1119,4.1168,4.1187,4.0961,4.096,4.096,4.096,0,4.0248,4.0328,4.0391,4.0476,4.0528,4.0615,4.0645,4.0696,4.07,4.0726,4.0835,4.0886,4.0967,4.0998,4.1002,4.1128,4.1111,4.1087,4.1037,4.1141,4.1187,4.1206,4.0966,4.0965,4.0964,4.0963,0,0,4.0391,4.0485,4.0508,4.0548,4.0622,4.0684,4.0771,4.0852,4.0896,4.0956,4.103,4.1138,4.1117,4.1163,4.1172,4.1232,4.1342,4.1201,4.1203,4.1226,4.1485,4.1502,4.1523,4.1335,4.1339,4.1342,4.1479,0,4.0519,4.0672,4.0691,4.0828,4.0902,4.0896,4.0972,4.1026,4.1054,4.1122,4.1152,4.1229,4.1195,4.1223,4.1282,4.1316,4.1394,4.1306,4.1404,4.1407,4.1388,4.1547,4.1565,4.1693,4.1498,4.1501,4.1503,0,4.0688,4.0755,4.0899,4.0965,4.0997,4.1065,4.1141,4.1206,4.1268,4.1284,4.1337,4.1339,4.1429,4.1376,4.1502,4.1442,4.1483,4.1507,4.1512,4.1521,4.1461,4.1561,4.1734,4.1753,4.1531,4.1529,4.1527,0,4.0779,4.0905,4.1008,4.1042,4.1121,4.1169,4.1205,4.1263,4.1311,4.1378,4.1409,4.1485,4.1527,4.1586,4.1609,4.1568,4.1734,4.1683,4.175,4.175,4.1785,4.1782,4.1967,4.1812,4.1811,4.1811,4.1811,0,4.092,4.1009,4.105,4.1114,4.1214,4.1234,4.1333,4.1366,4.1419,4.1489,4.1488,4.1554,4.1581,4.1652,4.1671,4.1772,4.1791,4.1807,4.1811,4.1807,4.1805,4.1834,4.1826,4.1816,4.1815,4.1814,4.1813,0,4.1038,4.1069,4.1182,4.1248,4.1267,4.1338,4.1395,4.1457,4.1485,4.1574,4.1596,4.1639,4.1723,4.1752,4.1853,4.1866,4.1984,4.198,4.1963,4.1964,4.2031,4.2024,4.224,4.227,4.2095,4.2096,4.2098,0,4.1125,4.1194,4.1269,4.1316,4.1353,4.1429,4.1479,4.1502,4.1554,4.1631,4.1684,4.1767,4.1834,4.1968,4.2008,4.2086,4.2084,4.2155,4.2096,4.2091,4.2086,4.2082,4.2089,4.2165,4.2167,4.2169,4.217,0,4.1278,4.1291,4.1362,4.144,4.1499,4.1561,4.1621,4.166,4.1692,4.175,4.1836,4.1888,4.1992,4.2075,4.2155,4.2191,4.2187,4.2188,4.2208,4.2205,4.2193,4.2201,4.1993,4.2183,4.2182,4.2181,4.218,4.218,4.1384,4.1445,4.1508,4.1588,4.1636,4.1693,4.1755,4.1791,4.1863,4.1949,4.1959,4.2051,4.2114,4.2221,4.2261,4.2334,4.2315,4.2343,4.2351,4.2357,4.2363,4.2181,4.2349,4.2348,4.2348,4.2348,4.2348,0,4.1537,4.1578,4.1651,4.1736,4.1799,4.179,4.1857,4.191,4.1992,4.205,4.2117,4.2217,4.2297,4.2345,4.2427,4.2476,4.2476,4.2496,4.2493,4.2502,4.2375,4.235,4.2495,4.2495,4.2495,4.2495,4.2495,4.2495,4.1624,4.1728,4.1749,4.1877,4.1916,4.2007,4.2046,4.2099,4.2146,4.2257,4.2325,4.2356,4.241,4.2496,4.257,4.2582,4.2612,4.2635,4.2645,4.2526,4.251,4.2496,4.2473,4.2641,4.2641,4.2766,4.2767,4.2768]},{"header":{"parameterUnit":"m.s-1","parameterCategory":1,"la1":30.2991,"la2":30.254,"lo1":-89.0895,"lo2":-89.0444,"dy":0.0017,"dx":0.0017,"nx":28,"ny":28,"refTime":"2023-08-25T03:00:00:Z","depth":0,"parameterNumber":3,"parameterNumberName":"V-component_of_WINDS"},"data":[0,0,0,0,0,0,0,0,0,0,0,0,0,0,0,0,0,0,0,0,0,0,0,0,0,0,0,0,0,0,0,0,0,0,0,0,0,0,0,0,0,0,0,0,0,0,0,0,0,0,0,0,0,0,0,0,0,0,-2.6874,-2.6875,0,-2.6973,-2.6975,-2.6976,-2.6978,-2.6977,-2.6976,-2.6974,-2.7074,-2.7078,-2.7081,0,0,0,0,0,0,0,0,0,0,0,0,0,-2.6686,-2.6689,-2.6874,-2.6875,-2.6877,-2.6973,-2.6975,-2.6976,-2.6978,-2.6977,-2.6975,-2.6974,-2.7073,-2.7077,-2.7082,0,0,0,0,0,0,0,0,0,0,0,0,0,-2.6775,-2.669,-2.6874,-2.689,-2.6892,-2.6973,-2.6975,-2.6976,-2.6979,-2.6977,-2.6975,-2.6973,-2.7071,-2.7077,-2.7082,-2.7154,0,0,-2.71,-2.7102,0,0,0,0,0,0,0,0,-2.6769,-2.6781,-2.6886,-2.6889,-2.6891,-2.6962,-2.6945,-2.7036,-2.6979,-2.6946,-2.6974,-2.6972,-2.7038,-2.7046,-2.7069,-2.7159,-2.7163,-2.71,-2.7104,-2.7106,-2.7108,0,0,0,0,0,0,0,-2.6763,-2.6777,-2.6913,-2.6887,-2.6891,-2.6891,-2.6902,-2.6962,-2.7001,-2.6948,-2.6949,-2.6961,-2.7039,-2.7063,-2.7071,-2.7164,-2.71,-2.7105,-2.7109,-2.7111,-2.7319,-2.7321,0,0,0,0,0,0,-2.6754,-2.6772,-2.691,-2.6916,-2.6825,-2.6896,-2.6908,-2.6941,-2.7,-2.7007,-2.6962,-2.696,-2.7054,-2.7064,-2.7075,-2.7163,-2.7106,-2.7111,-2.7115,-2.7317,-2.7319,-2.7321,0,0,0,0,0,0,-2.675,-2.6767,-2.6906,-2.6844,-2.6862,-2.6901,-2.6938,-2.6944,-2.6968,-2.701,-2.7017,-2.698,-2.7053,-2.7067,-2.7134,-2.7166,-2.7114,-2.7119,-2.7314,-2.7317,-2.732,-2.7339,0,0,0,0,0,0,-2.6745,-2.6765,-2.6793,-2.6845,-2.6866,-2.6965,-2.694,-2.6947,-2.6978,-2.6977,-2.7029,-2.7036,-2.7053,-2.7126,-2.714,-2.7173,-2.7123,-2.7311,-2.7315,-2.7319,-2.7336,-2.7343,-2.7349,0,0,0,0,0,-2.6738,-2.6794,-2.6794,-2.6811,-2.6901,-2.6967,-2.6978,-2.6998,-2.6981,-2.7009,-2.7036,-2.7034,-2.7161,-2.7133,-2.7149,-2.7184,-2.7309,-2.7314,-2.7319,-2.7333,-2.7341,-2.7348,0,0,0,0,0,0,-2.6743,-2.6801,-2.6802,-2.6876,-2.6917,-2.6967,-2.7003,-2.7006,-2.7051,-2.7048,-2.7069,-2.7081,-2.7149,-2.7173,-2.7141,-2.7257,-2.7233,-2.7241,-2.7238,-2.7246,-2.7253,-2.7245,-2.7128,0,0,0,0,0,-2.6753,-2.6802,-2.685,-2.6911,-2.6931,-2.6964,-2.6993,-2.7004,-2.7047,-2.7064,-2.7096,-2.7137,-2.7186,-2.7217,-2.7265,-2.734,-2.7351,-2.7372,-2.7378,-2.7383,-2.739,-2.7432,-2.7441,-2.7337,-2.7337,-2.7337,0,0,-2.6774,-2.6812,-2.6841,-2.6913,-2.6945,-2.6995,-2.6978,-2.7031,-2.7068,-2.7071,-2.7138,-2.7163,-2.721,-2.7282,-2.7315,-2.7304,-2.7421,-2.7389,-2.7393,-2.7397,-2.7438,-2.7447,-2.7456,-2.734,-2.734,-2.7339,0,0,-2.6838,-2.6871,-2.6926,-2.6959,-2.7009,-2.7031,-2.7044,-2.7094,-2.7111,-2.7178,-2.7182,-2.7226,-2.731,-2.7344,-2.7372,-2.7449,-2.7449,-2.7464,-2.7497,-2.7537,-2.7546,-2.7553,-2.7581,-2.7591,-2.7471,-2.7471,-2.7471,0,-2.6857,-2.6933,-2.6953,-2.7007,-2.7039,-2.7045,-2.71,-2.7132,-2.7194,-2.7216,-2.7203,-2.7309,-2.7341,-2.7421,-2.744,-2.7463,-2.7478,-2.7458,-2.7543,-2.755,-2.7558,-2.7584,-2.7595,-2.7472,-2.7472,-2.7472,-2.7472,0,-2.6954,-2.7007,-2.7045,-2.7106,-2.7142,-2.7196,-2.7225,-2.7259,-2.7267,-2.729,-2.7359,-2.7398,-2.7454,-2.7473,-2.7482,-2.7555,-2.7547,-2.7538,-2.7515,-2.7569,-2.7594,-2.7605,-2.7474,-2.7474,-2.7473,-2.7473,0,0,-2.7023,-2.7096,-2.7109,-2.7138,-2.7194,-2.7235,-2.729,-2.7345,-2.7374,-2.7417,-2.7463,-2.7535,-2.7528,-2.7559,-2.7572,-2.7608,-2.7667,-2.7595,-2.7596,-2.7607,-2.7751,-2.7757,-2.7768,-2.7668,-2.767,-2.7671,-2.7747,0,-2.7092,-2.719,-2.7211,-2.7296,-2.7345,-2.7352,-2.74,-2.7439,-2.7462,-2.7507,-2.7532,-2.7583,-2.7569,-2.7589,-2.7624,-2.7652,-2.7696,-2.7647,-2.7711,-2.7713,-2.7699,-2.7782,-2.7788,-2.7858,-2.7757,-2.7759,-2.776,0,-2.7186,-2.7233,-2.7323,-2.7373,-2.7395,-2.7437,-2.749,-2.7533,-2.7578,-2.7592,-2.7629,-2.7638,-2.7695,-2.7669,-2.7748,-2.7714,-2.7742,-2.776,-2.7763,-2.7769,-2.7739,-2.779,-2.788,-2.789,-2.7776,-2.7774,-2.7773,0,-2.7228,-2.7313,-2.7378,-2.7402,-2.7462,-2.7492,-2.7519,-2.7562,-2.7594,-2.7641,-2.7662,-2.7714,-2.7742,-2.7782,-2.7805,-2.7784,-2.7882,-2.7858,-2.7896,-2.7895,-2.7916,-2.7914,-2.8011,-2.7933,-2.7933,-2.7933,-2.7933,0,-2.7303,-2.7358,-2.7397,-2.7437,-2.7499,-2.7522,-2.7582,-2.7609,-2.7648,-2.7693,-2.7702,-2.7744,-2.7771,-2.7817,-2.7836,-2.7899,-2.7911,-2.7924,-2.7928,-2.7924,-2.7922,-2.7942,-2.7937,-2.7936,-2.7935,-2.7935,-2.7934,0,-2.736,-2.7388,-2.746,-2.7511,-2.7526,-2.7569,-2.7613,-2.7652,-2.7676,-2.7733,-2.7748,-2.7785,-2.7839,-2.7866,-2.7934,-2.7946,-2.8018,-2.8019,-2.8003,-2.8004,-2.804,-2.8037,-2.8153,-2.817,-2.8081,-2.8082,-2.8083,0,-2.7406,-2.7448,-2.7505,-2.7536,-2.7564,-2.7614,-2.7647,-2.7672,-2.7706,-2.7761,-2.7794,-2.7849,-2.7895,-2.7982,-2.8014,-2.8066,-2.8069,-2.8106,-2.8077,-2.8071,-2.807,-2.8067,-2.8072,-2.8111,-2.8112,-2.8113,-2.8113,0,-2.7485,-2.7497,-2.7545,-2.7599,-2.7638,-2.7681,-2.7724,-2.7749,-2.778,-2.7818,-2.7875,-2.791,-2.798,-2.8035,-2.8089,-2.8116,-2.812,-2.8123,-2.8134,-2.813,-2.8119,-2.8125,-2.8017,-2.812,-2.8119,-2.8119,-2.8118,-2.8118,-2.7538,-2.7576,-2.7623,-2.7676,-2.7711,-2.775,-2.779,-2.7819,-2.7866,-2.7926,-2.7937,-2.7997,-2.8042,-2.8116,-2.8145,-2.8192,-2.8184,-2.82,-2.8205,-2.8208,-2.8211,-2.8111,-2.8202,-2.8202,-2.8202,-2.8202,-2.8202,0,-2.7618,-2.7648,-2.7697,-2.7757,-2.7799,-2.78,-2.7847,-2.7882,-2.7935,-2.7976,-2.8021,-2.8087,-2.814,-2.8178,-2.8232,-2.8263,-2.8266,-2.8276,-2.8274,-2.8281,-2.8215,-2.8199,-2.8273,-2.8273,-2.8273,-2.8273,-2.8273,-2.8273,-2.7664,-2.773,-2.7748,-2.783,-2.786,-2.792,-2.7947,-2.7983,-2.8017,-2.809,-2.8134,-2.8159,-2.8199,-2.8257,-2.8306,-2.8315,-2.8335,-2.8346,-2.8355,-2.8293,-2.8285,-2.8278,-2.8264,-2.835,-2.835,-2.8417,-2.8418,-2.8418]}]]